Location: Kitchener-Waterloo
(43.4500°N, 80.5000°W)
Time: 23:39:10
(UTC-04:00)

Daily predictions for brighter satellites

Satellite Brightness Start Highest point End
(mag) Time Altitude Azimuth Time Altitude Azimuth Time Altitude Azimuth
Cosmos 1340 Rocket 2.8 21:35:05 10° S 21:39:05 72° E 21:43:08 10° NNE
Cosmos 1818 3.7 21:33:53 10° NNW 21:39:21 72° NE 21:44:46 10° SE
Cosmos 2237 Rocket 3.2 21:35:56 10° NW 21:41:14 44° WSW 21:46:31 10° S
NOSS 3-4 (A) 4.2 21:34:48 10° NW 21:41:46 65° WSW 21:49:11 10° SSE
NOSS 3-4 (C) 4.2 21:34:53 10° NW 21:41:52 66° WSW 21:49:18 10° SSE
Cosmos 1741 Rocket 4.2 21:36:56 10° S 21:42:06 56° ESE 21:47:17 10° NNE
Terra 4.0 21:43:14 10° E 21:44:58 12° ENE 21:46:42 10° NE
USA 186 4.1 21:47:27 10° WSW 21:48:32 12° W 21:49:37 10° WNW
USA 245 4.5 21:47:06 10° SE 21:50:04 28° ENE 21:53:38 10° N
Resurs 01 Rocket 4.1 21:50:20 10° SW 21:53:33 20° W 21:56:49 10° NW
Cosmos 2227 Rocket 3.6 21:51:49 10° SW 21:57:11 44° WNW 22:02:35 10° NNE
H-2A R/B 4.3 21:59:05 10° ENE 22:00:20 11° ENE 22:01:35 10° NE
Cosmos 1674 2.7 21:57:12 10° S 22:00:54 59° E 22:04:37 10° NNE
Cosmos 1459 Rocket 4.1 21:55:34 10° N 22:01:52 68° E 22:08:02 10° SSE
Helios 1B rocket 3.2 21:58:01 10° N 22:02:06 56° WNW 22:06:08 10° SSW
H-2A ROCKET BODY 4.0 22:02:00 10° SSE 22:03:40 11° SE 22:05:52 10° ESE
Cosmos 2084 3.1 22:00:04 10° SSW 22:04:03 72° SE 22:07:52 10° NE
Cosmos 1908 3.2 22:00:10 10° N 22:04:04 76° E 22:07:54 10° SSE
Cosmos 2100 Rocket 4.1 21:58:26 10° N 22:04:46 77° E 22:11:07 10° SSE
SL-16 R/B 2.5 21:59:57 10° NNW 22:05:35 66° WSW 22:11:10 10° SSE
ARGOS 3.4 22:01:38 10° SSE 22:06:56 58° ENE 22:12:15 10° N
MetOp-A 4.2 22:01:48 10° SSE 22:07:08 74° ENE 22:12:30 10° N
Helios 1A 4.4 22:04:35 10° SSW 22:08:23 35° W 22:12:12 10° NNW
Cosmos 2061 Rocket 4.1 22:02:21 10° N 22:08:44 70° E 22:15:08 10° SSE
ERBS 4.0 22:07:43 10° NNW 22:10:38 26° NNE 22:13:33 10° E
Meteor 1-29 4.1 22:07:42 10° N 22:11:00 46° WNW 22:14:19 10° SSW
KORONAS-FOTON 3.9 22:11:02 10° S 22:14:45 58° E 22:18:30 10° NNE
Cosmos 2173 Rocket 4.0 22:10:07 10° N 22:16:19 85° E 22:22:32 10° S
Cosmos 2208 Rocket 4.2 22:11:18 10° NNW 22:16:38 75° WSW 22:21:57 10° SSE
Cosmos 2123 Rocket 4.4 22:11:12 10° SSE 22:16:57 43° E 22:22:45 10° NNE
SPOT 1/Viking Rocket 3.7 22:25:32 15° SSE 22:29:43 62° ENE 22:34:49 10° N
Cosmos 1242 Rocket 3.3 22:27:43 10° NNW 22:31:21 51° W 22:34:52 10° S
Cosmos 1763 Rocket 4.1 22:26:40 10° N 22:31:31 41° ENE 22:35:00 17° SE
Cosmos 1356 Rocket 4.0 22:31:23 10° SSW 22:35:35 60° WNW 22:39:52 10° N
Cosmos 1802 Rocket 4.1 22:31:49 10° N 22:37:57 77° W 22:43:58 11° S
Cosmos 1725 Rocket 4.1 22:32:31 10° N 22:38:46 65° E 22:43:35 17° SSE
Cosmos 2227 4.2 22:36:01 10° SSW 22:41:45 82° ESE 22:47:29 10° NNE
SPOT 5 3.0 22:37:41 14° S 22:41:47 77° WSW 22:46:54 10° NNW
Cosmos 371 Rocket 3.4 22:37:52 10° NNW 22:42:39 62° ENE 22:45:45 21° SE
Lacrosse 5 1.8 22:38:10 10° NW 22:43:16 87° NE 22:46:42 21° SE
Cosmos 2058 4.1 22:41:53 21° SE 22:43:33 27° E 22:47:06 10° NNE
Cosmos 1408 Rocket 3.7 22:39:54 10° SSW 22:44:11 73° W 22:48:32 10° N
Cosmos 1867 4.2 22:42:33 10° SW 22:47:56 61° NW 22:53:22 10° NNE
Tiangong 1 0.6 22:51:21 10° W 22:54:09 79° S 22:55:09 35° E
Abrixas rocket 2.4 22:51:52 10° WNW 22:55:05 66° NNE 22:56:48 25° E
RESURS DK-1 2.5 22:51:39 10° NNW 22:55:49 70° WSW 22:58:06 25° SSE
USA 234 3.2 22:52:54 10° NE 22:59:28 83° SE 23:06:01 10° SW
Cosmos 468 Rocket 4.3 22:55:23 10° NNW 23:00:27 61° WSW 23:03:53 20° S
Meteor 2-2 Rocket 4.4 22:57:13 10° NNW 23:02:59 74° W 23:07:23 18° S
EO 1 Delta rocket 4.0 22:59:49 19° S 23:03:13 69° W 23:07:52 10° NNW
Cosmos 1500 Rocket 3.6 23:01:39 24° S 23:04:13 65° E 23:08:39 10° NNE
Cosmos 2151 3.2 23:02:31 28° SSE 23:04:32 54° E 23:08:45 10° NNE
SL-14 R/B 3.4 23:02:07 18° SSW 23:04:59 77° W 23:08:57 10° N
Cosmos 1626 2.8 23:05:11 31° SE 23:06:03 36° E 23:09:31 10° NNE
Landsat 7 3.8 23:04:12 25° SSE 23:07:02 88° W 23:11:50 10° NNW
Cosmos 2263 Rocket 2.4 23:04:26 22° S 23:07:46 48° ESE 23:13:08 10° NE
Meteor 2-10 4.3 23:02:36 10° NNW 23:08:12 77° W 23:12:05 21° S
Cosmos 1300 3.1 23:04:26 10° NNW 23:08:13 58° W 23:10:19 24° SSW
Cosmos 1726 3.2 23:07:04 10° NNW 23:10:31 39° W 23:12:45 19° SSW
Cosmos 1328 4.1 23:09:19 18° SSW 23:12:15 65° W 23:16:18 10° N
H-2A R/B 2.6 23:10:15 19° S 23:14:02 57° W 23:19:23 10° NNW
CARTOSAT-1 3.5 23:12:29 31° SSE 23:14:29 79° ENE 23:18:49 10° N
ATLAS 5 CENTAUR R/B 4.0 23:10:43 10° W 23:14:54 29° NW 23:19:26 10° NNE
CZ-4 R/B 4.2 23:16:42 10° NNE 23:21:25 48° E 23:23:07 33° SSE
Terra 1.8 23:19:38 30° SSE 23:21:58 89° WSW 23:26:46 10° NNW
Cosmos 1805 Rocket 4.5 23:22:29 29° ESE 23:23:19 31° E 23:27:09 10° NNE
CZ-4B R/B 3.9 23:25:19 10° NNE 23:30:26 49° E 23:32:19 34° SSE
SL-19 R/B 4.1 23:25:49 10° NNE 23:31:10 75° ESE 23:34:17 27° S
Cosmos 1515 Rocket 4.1 23:26:58 10° NNW 23:31:10 50° W 23:33:17 26° SSW
Cosmos 2233 Rocket 4.0 23:25:51 10° N 23:32:04 80° W 23:35:40 27° S
Cosmos 540 Rocket 3.8 23:28:54 10° NNW 23:33:58 55° ENE 23:36:05 32° SE
Cosmos 2228 Rocket 4.3 23:30:05 10° NNW 23:34:20 39° W 23:37:00 20° SSW
H-2A R/B 2.0 23:34:10 39° S 23:35:45 80° WSW 23:40:01 10° NNW
Cosmos 1151 Rocket 3.4 23:31:31 10° NNW 23:35:51 59° W 23:37:43 32° SSW
Cosmos 1455 2.1 23:38:04 10° N 23:41:58 73° E 23:42:40 55° SE
Cosmos 1844 Rocket 4.1 23:41:56 20° ESE 23:42:14 20° E 23:46:08 10° NE
IGS 5A 3.9 23:41:12 34° SSW 23:42:42 52° W 23:46:47 10° NNW
Cosmos 1869 4.1 23:39:50 10° N 23:43:31 36° ENE 23:44:06 34° E
Cosmos 1356 4.3 23:44:50 30° SW 23:46:07 45° WNW 23:49:30 10° N
Cosmos 304 Rocket 3.7 23:41:32 10° NNW 23:46:21 81° ENE 23:47:54 43° SSE
ERBS 3.1 23:44:12 10° WNW 23:47:11 37° WSW 23:47:11 37° WSW
Cosmos 1943 3.6 23:43:26 10° NNW 23:48:56 54° WSW 23:51:21 32° S
Spot 4 3.8 23:47:15 41° SSE 23:48:59 88° E 23:53:54 10° NNW
CZ-4C R/B 3.6 23:49:57 48° SE 23:51:00 68° ENE 23:55:22 10° N
Cosmos 1354 Rocket 3.9 23:51:23 31° SSW 23:54:00 90° ENE 23:59:16 10° NNE
